User: anonymous   Login
Location: Caltech
(34.1382°N, 118.1253°W)
Time: 12:40:58
(UTC-07:00)
Language:

OAO 2 Rocket - Orbit

View from above orbital plane
View from above orbital plane
View from above satellite
View from above satellite

Ground track
Ground track

The orbit data is extracted from the following two-line orbital elements,

1 03598U 68110B   16237.13692189  .00000090  00000-0  25545-4 0  9993
2 03598  34.9926 214.5337 0049495 337.7490  22.1057 14.54240207523207
Epoch (UTC): 24 August 2016 03:17:10
Eccentricity: 0.0049495
inclination: 34.9926°
perigee height: 677 km
apogee height: 747 km
right ascension of ascending node: 214.5337°
argument of perigee: 337.7490°
revolutions per day: 14.54240207
mean anomaly at epoch: 22.1057°
orbit number at epoch: 52320

The dashed part of the orbit path shows where the satellite is in the earth's shadow,  

DLR